Flag for U.S.A. Weather past 2 weeks in Bismarck, North Dakota, U.S.A.

Now
57 °F

Clear.


Feels Like: 57 °F
Forecast: 52 / 89 °F
Wind: 5 mph from Southeast

Location: Bismarck Municipal Airport

Current Time: Sep 1, 2015 at 2:10:07 AM

Latest Report: Sep 1, 2015 at 12:52 AM


Visibility: 10 mi

Pressure: 29.89 "Hg (28.12 "Hg at 513m altitude)

Humidity: 81%

Dew point: 51 °F

Location of BismarckLocation

Historic Weather in Bismarck — Graph

°F

Bismarck temperature yesterday

Maximum temperature yesterday: 84 °F (at 4:52 PM)
Minimum temperature yesterday: 60 °F (at 9:52 PM)
Average temperature yesterday: 73 °F

Past Weeks' High & Low Weather Summary

 TemperatureHumidityPressure
High98 °F (Aug 30, 5:52 PM)100% (Aug 29, 3:52 AM)30.22 "Hg (Aug 29, 3:52 AM)
Low43 °F (Aug 24, 6:52 AM)23% (Aug 21, 4:52 PM)29.47 "Hg (Aug 22, 3:52 AM)
Average67 °F66%29.90 "Hg
* Reported Aug 17 12:52 AM — Sep 1 12:52 AM, Bismarck, Weather by CustomWeather, © 2015

Note: Actual official high and low records may vary slightly from our data, if they occured in-between our weather recording intervals... More about our weather records

Advertising

Bismarck weather history for previous 24 hours

 ConditionsComfort  
Time TempWeatherWind HumidityBarometerVisibility
12:52 AM
Tue, Sep 1
57 °FClear.5 mph81%29.89 "Hg10 mi
11:52 PM
Mon, Aug 31
60 °FClear.6 mph75%29.89 "Hg10 mi
9:52 PM60 °FClear.5 mph67%29.89 "Hg10 mi
8:52 PM67 °FSunny.No wind49%29.87 "Hg10 mi
7:52 PM78 °FSunny.5 mph30%29.84 "Hg10 mi
6:52 PM81 °FSunny.8 mph26%29.84 "Hg10 mi
5:52 PM83 °FSunny.9 mph24%29.84 "Hg10 mi
4:52 PM84 °FSunny.10 mph23%29.84 "Hg10 mi
3:52 PM83 °FSunny.9 mph24%29.84 "Hg10 mi
2:52 PM81 °FSunny.10 mph33%29.85 "Hg10 mi
1:52 PM78 °FSunny.12 mph37%29.87 "Hg10 mi
12:52 PM76 °FSunny.12 mph43%29.87 "Hg10 mi
11:52 AM74 °FSunny.17 mph48%29.86 "Hg10 mi
10:52 AM73 °FSunny.9 mph57%29.84 "Hg10 mi
9:52 AM69 °FSunny.14 mph70%29.82 "Hg10 mi
8:52 AM68 °FSunny.14 mph70%29.79 "Hg10 mi
7:52 AM68 °FClear.9 mph65%29.74 "Hg6 mi
6:52 AM69 °FClear.8 mph66%29.67 "Hg6 mi
5:52 AM69 °FClear.13 mph66%29.65 "Hg6 mi
4:52 AM70 °FClear.7 mph71%29.61 "Hg4 mi
3:52 AM70 °FClear.12 mph71%29.59 "Hg4 mi
2:52 AM71 °FHaze.6 mph71%29.58 "Hg5 mi
Weather by CustomWeather, © 2015

See weather overviewHow to use our weather pages